![]() |
EMODnet Physics ERDDAP
Easier access to scientific data |
log in|
Brought to you by EMODnet Physics |
| Dataset Title: | NDBC - Collection of dew point temperature (DEWT) TimeSeries - IN SITU MultiPointTimeSeriesObservation
|
| Institution: | NDBC (Dataset ID: TS_DEWT_NDBC) |
| Information: | Summary
| License
| FGDC
| ISO 19115
| Metadata
| Background
| Subset
| Data Access Form
| Make a graph
|
| Name | Last modified | Size | Description | |
|---|---|---|---|---|
| Parent Directory | - | - | ||
| 44007_TS_DEWT_012000.nc | 17-Jan-2026 05:27 | 450074 | ||
| 44007_TS_DEWT_012001.nc | 17-Jan-2026 05:31 | 448464 | ||
| 44007_TS_DEWT_012002.nc | 17-Jan-2026 05:35 | 450120 | ||
| 44007_TS_DEWT_012003.nc | 17-Jan-2026 05:41 | 449383 | ||
| 44007_TS_DEWT_012004.nc | 17-Jan-2026 05:45 | 447203 | ||
| 44007_TS_DEWT_012005.nc | 17-Jan-2026 05:49 | 448249 | ||
| 44007_TS_DEWT_012006.nc | 17-Jan-2026 05:53 | 448990 | ||
| 44007_TS_DEWT_012007.nc | 17-Jan-2026 05:58 | 450274 | ||
| 44007_TS_DEWT_012008.nc | 17-Jan-2026 06:04 | 450118 | ||
| 44007_TS_DEWT_012009.nc | 17-Jan-2026 06:14 | 450198 | ||
| 44007_TS_DEWT_012011.nc | 17-Jan-2026 06:26 | 449822 | ||
| 44007_TS_DEWT_012012.nc | 17-Jan-2026 06:32 | 449449 | ||
| 44007_TS_DEWT_012014.nc | 17-Jan-2026 06:41 | 449699 | ||
| 44007_TS_DEWT_012015.nc | 17-Jan-2026 06:47 | 449012 | ||
| 44007_TS_DEWT_012016.nc | 17-Jan-2026 06:51 | 449482 | ||
| 44007_TS_DEWT_012017.nc | 17-Jan-2026 06:55 | 449709 | ||
| 44007_TS_DEWT_012018.nc | 17-Jan-2026 06:59 | 429572 | ||
| 44007_TS_DEWT_012019.nc | 17-Jan-2026 07:03 | 429571 | ||
| 44007_TS_DEWT_012020.nc | 17-Jan-2026 07:07 | 448986 | ||
| 44007_TS_DEWT_012021.nc | 17-Jan-2026 07:12 | 448656 | ||
| 44007_TS_DEWT_012022.nc | 17-Jan-2026 07:21 | 449496 | ||
| 44007_TS_DEWT_012023.nc | 17-Jan-2026 07:34 | 450460 | ||
| 44007_TS_DEWT_012024.nc | 17-Jan-2026 07:45 | 449772 | ||
| 44007_TS_DEWT_012025.nc | 17-Jan-2026 07:56 | 449581 | ||
| 44007_TS_DEWT_012026.nc | 02-Feb-2026 17:04 | 450403 | ||
| 44007_TS_DEWT_022000.nc | 17-Jan-2026 05:27 | 449421 | ||
| 44007_TS_DEWT_022001.nc | 17-Jan-2026 05:31 | 449418 | ||
| 44007_TS_DEWT_022002.nc | 17-Jan-2026 05:35 | 4317327 | ||
| 44007_TS_DEWT_022003.nc | 17-Jan-2026 05:41 | 2464805 | ||
| 44007_TS_DEWT_022004.nc | 17-Jan-2026 05:45 | 429683 | ||
| 44007_TS_DEWT_022006.nc | 17-Jan-2026 05:53 | 429685 | ||
| 44007_TS_DEWT_022007.nc | 17-Jan-2026 05:58 | 429687 | ||
| 44007_TS_DEWT_022008.nc | 17-Jan-2026 06:05 | 429692 | ||
| 44007_TS_DEWT_022009.nc | 17-Jan-2026 06:14 | 429684 | ||
| 44007_TS_DEWT_022010.nc | 17-Jan-2026 06:20 | 429597 | ||
| 44007_TS_DEWT_022011.nc | 17-Jan-2026 06:26 | 429691 | ||
| 44007_TS_DEWT_022012.nc | 17-Jan-2026 06:32 | 429697 | ||
| 44007_TS_DEWT_022014.nc | 17-Jan-2026 06:41 | 429693 | ||
| 44007_TS_DEWT_022015.nc | 17-Jan-2026 06:48 | 429692 | ||
| 44007_TS_DEWT_022016.nc | 17-Jan-2026 06:51 | 429697 | ||
| 44007_TS_DEWT_022017.nc | 17-Jan-2026 06:55 | 429697 | ||
| 44007_TS_DEWT_022018.nc | 17-Jan-2026 06:59 | 429689 | ||
| 44007_TS_DEWT_022019.nc | 17-Jan-2026 07:03 | 450753 | ||
| 44007_TS_DEWT_022020.nc | 17-Jan-2026 07:07 | 450444 | ||
| 44007_TS_DEWT_022021.nc | 17-Jan-2026 07:13 | 450472 | ||
| 44007_TS_DEWT_022022.nc | 17-Jan-2026 07:22 | 450542 | ||
| 44007_TS_DEWT_022023.nc | 17-Jan-2026 07:35 | 440728 | ||
| 44007_TS_DEWT_022024.nc | 17-Jan-2026 07:46 | 449826 | ||
| 44007_TS_DEWT_022025.nc | 17-Jan-2026 07:58 | 451520 | ||
| 44007_TS_DEWT_022026.nc | 01-Mar-2026 05:50 | 450912 | ||
| 44007_TS_DEWT_032000.nc | 17-Jan-2026 05:28 | 450832 | ||
| 44007_TS_DEWT_032001.nc | 17-Jan-2026 05:32 | 450248 | ||
| 44007_TS_DEWT_032002.nc | 17-Jan-2026 05:36 | 450619 | ||
| 44007_TS_DEWT_032003.nc | 17-Jan-2026 05:41 | 449464 | ||
| 44007_TS_DEWT_032004.nc | 17-Jan-2026 05:45 | 450780 | ||
| 44007_TS_DEWT_032006.nc | 17-Jan-2026 05:54 | 450221 | ||
| 44007_TS_DEWT_032007.nc | 17-Jan-2026 05:59 | 450726 | ||
| 44007_TS_DEWT_032008.nc | 17-Jan-2026 06:06 | 449814 | ||
| 44007_TS_DEWT_032011.nc | 17-Jan-2026 06:27 | 429916 | ||
| 44007_TS_DEWT_032012.nc | 17-Jan-2026 06:32 | 429916 | ||
| 44007_TS_DEWT_032014.nc | 17-Jan-2026 06:42 | 451202 | ||
| 44007_TS_DEWT_032016.nc | 17-Jan-2026 06:51 | 444017 | ||
| 44007_TS_DEWT_032017.nc | 17-Jan-2026 06:55 | 450826 | ||
| 44007_TS_DEWT_032018.nc | 17-Jan-2026 06:59 | 450795 | ||
| 44007_TS_DEWT_032019.nc | 17-Jan-2026 07:03 | 446526 | ||
| 44007_TS_DEWT_032020.nc | 17-Jan-2026 07:08 | 450156 | ||
| 44007_TS_DEWT_032021.nc | 17-Jan-2026 07:13 | 450867 | ||
| 44007_TS_DEWT_032022.nc | 17-Jan-2026 07:23 | 446285 | ||
| 44007_TS_DEWT_032023.nc | 17-Jan-2026 07:36 | 451136 | ||
| 44007_TS_DEWT_032024.nc | 17-Jan-2026 07:47 | 4123867 | ||
| 44007_TS_DEWT_032025.nc | 17-Jan-2026 07:59 | 1626616 | ||
| 44007_TS_DEWT_032026.nc | 26-Mar-2026 07:22 | 1625667 | ||
| 44007_TS_DEWT_042000.nc | 17-Jan-2026 05:28 | 1475783 | ||
| 44007_TS_DEWT_042001.nc | 17-Jan-2026 05:32 | 1626771 | ||
| 44007_TS_DEWT_042002.nc | 17-Jan-2026 05:36 | 1626977 | ||
| 44007_TS_DEWT_042003.nc | 17-Jan-2026 05:42 | 1626674 | ||
| 44007_TS_DEWT_042004.nc | 17-Jan-2026 05:46 | 1626715 | ||
| 44007_TS_DEWT_042006.nc | 17-Jan-2026 05:54 | 1626159 | ||
| 44007_TS_DEWT_042007.nc | 17-Jan-2026 05:59 | 1626922 | ||
| 44007_TS_DEWT_042008.nc | 17-Jan-2026 06:06 | 1626930 | ||
| 44007_TS_DEWT_042010.nc | 17-Jan-2026 06:21 | 1625353 | ||
| 44007_TS_DEWT_042011.nc | 17-Jan-2026 06:27 | 1626816 | ||
| 44007_TS_DEWT_042012.nc | 17-Jan-2026 06:33 | 1626759 | ||
| 44007_TS_DEWT_042014.nc | 17-Jan-2026 06:42 | 1626694 | ||
| 44007_TS_DEWT_042016.nc | 17-Jan-2026 06:52 | 1626826 | ||
| 44007_TS_DEWT_042017.nc | 17-Jan-2026 06:56 | 1470010 | ||
| 44007_TS_DEWT_042018.nc | 17-Jan-2026 07:00 | 1469280 | ||
| 44007_TS_DEWT_042019.nc | 17-Jan-2026 07:04 | 1469674 | ||
| 44007_TS_DEWT_042020.nc | 17-Jan-2026 07:08 | 1473498 | ||
| 44007_TS_DEWT_042021.nc | 17-Jan-2026 07:14 | 1470029 | ||
| 44007_TS_DEWT_042022.nc | 17-Jan-2026 07:24 | 1469875 | ||
| 44007_TS_DEWT_042023.nc | 17-Jan-2026 07:37 | 1469292 | ||
| 44007_TS_DEWT_042024.nc | 17-Jan-2026 07:47 | 1473233 | ||
| 44007_TS_DEWT_042025.nc | 17-Jan-2026 07:59 | 1469913 | ||
| 44007_TS_DEWT_051999.nc | 17-Jan-2026 05:24 | 1469699 | ||
| 44007_TS_DEWT_052000.nc | 17-Jan-2026 05:28 | 1470026 | ||
| 44007_TS_DEWT_052001.nc | 17-Jan-2026 05:32 | 1473337 | ||
| 44007_TS_DEWT_052002.nc | 17-Jan-2026 05:36 | 1469761 | ||
| 44007_TS_DEWT_052003.nc | 17-Jan-2026 05:42 | 1469777 | ||
| 44007_TS_DEWT_052004.nc | 17-Jan-2026 05:46 | 1468836 | ||
| 44007_TS_DEWT_052005.nc | 17-Jan-2026 05:49 | 1626928 | ||
| 44007_TS_DEWT_052006.nc | 17-Jan-2026 05:55 | 1624675 | ||
| 44007_TS_DEWT_052008.nc | 17-Jan-2026 06:07 | 1624435 | ||
| 44007_TS_DEWT_052010.nc | 17-Jan-2026 06:21 | 1626989 | ||
| 44007_TS_DEWT_052011.nc | 17-Jan-2026 06:28 | 1626550 | ||
| 44007_TS_DEWT_052012.nc | 17-Jan-2026 06:33 | 1626766 | ||
| 44007_TS_DEWT_052014.nc | 17-Jan-2026 06:42 | 1625665 | ||
| 44007_TS_DEWT_052016.nc | 17-Jan-2026 06:52 | 1473939 | ||
| 44007_TS_DEWT_052017.nc | 17-Jan-2026 06:56 | 1626616 | ||
| 44007_TS_DEWT_052018.nc | 17-Jan-2026 07:00 | 1626617 | ||
| 44007_TS_DEWT_052019.nc | 17-Jan-2026 07:04 | 1626667 | ||
| 44007_TS_DEWT_052020.nc | 17-Jan-2026 07:08 | 1626968 | ||
| 44007_TS_DEWT_052021.nc | 17-Jan-2026 07:15 | 1159114 | ||
| 44007_TS_DEWT_052022.nc | 17-Jan-2026 07:24 | 1626496 | ||
| 44007_TS_DEWT_052023.nc | 17-Jan-2026 07:38 | 1626708 | ||
| 44007_TS_DEWT_052024.nc | 17-Jan-2026 07:48 | 1473466 | ||
| 44007_TS_DEWT_052025.nc | 17-Jan-2026 08:01 | 1475951 | ||
| 44007_TS_DEWT_061999.nc | 17-Jan-2026 05:24 | 1477092 | ||
| 44007_TS_DEWT_062000.nc | 17-Jan-2026 05:29 | 1477099 | ||
| 44007_TS_DEWT_062001.nc | 17-Jan-2026 05:33 | 1477068 | ||
| 44007_TS_DEWT_062002.nc | 17-Jan-2026 05:37 | 1477105 | ||
| 44007_TS_DEWT_062003.nc | 17-Jan-2026 05:42 | 1476121 | ||
| 44007_TS_DEWT_062004.nc | 17-Jan-2026 05:47 | 1469928 | ||
| 44007_TS_DEWT_062005.nc | 17-Jan-2026 05:50 | 1476962 | ||
| 44007_TS_DEWT_062006.nc | 17-Jan-2026 05:55 | 1476946 | ||
| 44007_TS_DEWT_062007.nc | 17-Jan-2026 06:00 | 1477107 | ||
| 44007_TS_DEWT_062008.nc | 17-Jan-2026 06:07 | 1477101 | ||
| 44007_TS_DEWT_062010.nc | 17-Jan-2026 06:22 | 1476903 | ||
| 44007_TS_DEWT_062014.nc | 17-Jan-2026 06:43 | 1477060 | ||
| 44007_TS_DEWT_062016.nc | 17-Jan-2026 06:52 | 1475489 | ||
| 44007_TS_DEWT_062017.nc | 17-Jan-2026 06:56 | 1625569 | ||
| 44007_TS_DEWT_062018.nc | 17-Jan-2026 07:00 | 1626973 | ||
| 44007_TS_DEWT_062019.nc | 17-Jan-2026 07:04 | 1626511 | ||
| 44007_TS_DEWT_062020.nc | 17-Jan-2026 07:09 | 1626982 | ||
| 44007_TS_DEWT_062021.nc | 17-Jan-2026 07:16 | 1626545 | ||
| 44007_TS_DEWT_062022.nc | 17-Jan-2026 07:25 | 1625506 | ||
| 44007_TS_DEWT_062023.nc | 17-Jan-2026 07:39 | 1624823 | ||
| 44007_TS_DEWT_062024.nc | 17-Jan-2026 07:49 | 1626864 | ||
| 44007_TS_DEWT_062025.nc | 17-Jan-2026 08:02 | 1626804 | ||
| 44007_TS_DEWT_071999.nc | 17-Jan-2026 05:25 | 1626498 | ||
| 44007_TS_DEWT_072000.nc | 17-Jan-2026 05:29 | 1626950 | ||
| 44007_TS_DEWT_072001.nc | 17-Jan-2026 05:33 | 1626934 | ||
| 44007_TS_DEWT_072002.nc | 17-Jan-2026 05:37 | 1477411 | ||
| 44007_TS_DEWT_072003.nc | 17-Jan-2026 05:43 | 1626735 | ||
| 44007_TS_DEWT_072004.nc | 17-Jan-2026 05:47 | 1626627 | ||
| 44007_TS_DEWT_072005.nc | 17-Jan-2026 05:50 | 437655 | ||
| 44007_TS_DEWT_072006.nc | 17-Jan-2026 05:55 | 1476383 | ||
| 44007_TS_DEWT_072007.nc | 17-Jan-2026 06:01 | 1476838 | ||
| 44007_TS_DEWT_072008.nc | 17-Jan-2026 06:08 | 1467121 | ||
| 44007_TS_DEWT_072010.nc | 17-Jan-2026 06:23 | 1477089 | ||
| 44007_TS_DEWT_072014.nc | 17-Jan-2026 06:43 | 1476808 | ||
| 44007_TS_DEWT_072016.nc | 17-Jan-2026 06:52 | 1476384 | ||
| 44007_TS_DEWT_072017.nc | 17-Jan-2026 06:57 | 1476376 | ||
| 44007_TS_DEWT_072018.nc | 17-Jan-2026 07:01 | 1476221 | ||
| 44007_TS_DEWT_072019.nc | 17-Jan-2026 07:05 | 1475851 | ||
| 44007_TS_DEWT_072020.nc | 17-Jan-2026 07:09 | 1475752 | ||
| 44007_TS_DEWT_072021.nc | 17-Jan-2026 07:16 | 1476661 | ||
| 44007_TS_DEWT_072022.nc | 17-Jan-2026 07:26 | 1477053 | ||
| 44007_TS_DEWT_072023.nc | 17-Jan-2026 07:40 | 1476424 | ||
| 44007_TS_DEWT_072024.nc | 17-Jan-2026 07:50 | 1476741 | ||
| 44007_TS_DEWT_072025.nc | 17-Jan-2026 08:03 | 1476048 | ||
| 44007_TS_DEWT_081999.nc | 17-Jan-2026 05:25 | 1626923 | ||
| 44007_TS_DEWT_082000.nc | 17-Jan-2026 05:29 | 1626806 | ||
| 44007_TS_DEWT_082001.nc | 17-Jan-2026 05:33 | 1473922 | ||
| 44007_TS_DEWT_082002.nc | 17-Jan-2026 05:37 | 1626925 | ||
| 44007_TS_DEWT_082003.nc | 17-Jan-2026 05:43 | 1626757 | ||
| 44007_TS_DEWT_082004.nc | 17-Jan-2026 05:47 | 1475921 | ||
| 44007_TS_DEWT_082005.nc | 17-Jan-2026 05:51 | 1625968 | ||
| 44007_TS_DEWT_082006.nc | 17-Jan-2026 05:56 | 1476506 | ||
| 44007_TS_DEWT_082007.nc | 17-Jan-2026 06:02 | 1626249 | ||
| 44007_TS_DEWT_082008.nc | 17-Jan-2026 06:09 | 1624630 | ||
| 44007_TS_DEWT_082010.nc | 17-Jan-2026 06:23 | 1625221 | ||
| 44007_TS_DEWT_082014.nc | 17-Jan-2026 06:44 | 1477022 | ||
| 44007_TS_DEWT_082015.nc | 17-Jan-2026 06:49 | 1474489 | ||
| 44007_TS_DEWT_082016.nc | 17-Jan-2026 06:53 | 1625103 | ||
| 44007_TS_DEWT_082017.nc | 17-Jan-2026 06:57 | 1626842 | ||
| 44007_TS_DEWT_082018.nc | 17-Jan-2026 07:01 | 1626589 | ||
| 44007_TS_DEWT_082019.nc | 17-Jan-2026 07:05 | 1626881 | ||
| 44007_TS_DEWT_082021.nc | 17-Jan-2026 07:17 | 1626938 | ||
| 44007_TS_DEWT_082022.nc | 17-Jan-2026 07:28 | 1626775 | ||
| 44007_TS_DEWT_082023.nc | 17-Jan-2026 07:41 | 1626962 | ||
| 44007_TS_DEWT_082024.nc | 17-Jan-2026 07:51 | 1626959 | ||
| 44007_TS_DEWT_082025.nc | 17-Jan-2026 08:04 | 1625734 | ||
| 44007_TS_DEWT_091999.nc | 17-Jan-2026 05:25 | 1626891 | ||
| 44007_TS_DEWT_092000.nc | 17-Jan-2026 05:30 | 1476847 | ||
| 44007_TS_DEWT_092001.nc | 17-Jan-2026 05:34 | 1625427 | ||
| 44007_TS_DEWT_092002.nc | 17-Jan-2026 05:39 | 1626908 | ||
| 44007_TS_DEWT_092003.nc | 17-Jan-2026 05:43 | 1477342 | ||
| 44007_TS_DEWT_092004.nc | 17-Jan-2026 05:48 | 1626681 | ||
| 44007_TS_DEWT_092005.nc | 17-Jan-2026 05:51 | 1625246 | ||
| 44007_TS_DEWT_092006.nc | 17-Jan-2026 05:56 | 1626913 | ||
| 44007_TS_DEWT_092007.nc | 17-Jan-2026 06:03 | 1626605 | ||
| 44007_TS_DEWT_092008.nc | 17-Jan-2026 06:10 | 1626309 | ||
| 44007_TS_DEWT_092010.nc | 17-Jan-2026 06:24 | 1161860 | ||
| 44007_TS_DEWT_092014.nc | 17-Jan-2026 06:44 | 1476608 | ||
| 44007_TS_DEWT_092015.nc | 17-Jan-2026 06:49 | 1471518 | ||
| 44007_TS_DEWT_092016.nc | 17-Jan-2026 06:53 | 1477089 | ||
| 44007_TS_DEWT_092017.nc | 17-Jan-2026 06:57 | 1477010 | ||
| 44007_TS_DEWT_092018.nc | 17-Jan-2026 07:01 | 1477097 | ||
| 44007_TS_DEWT_092019.nc | 17-Jan-2026 07:06 | 1476263 | ||
| 44007_TS_DEWT_092021.nc | 17-Jan-2026 07:18 | 1476926 | ||
| 44007_TS_DEWT_092022.nc | 17-Jan-2026 07:29 | 1476013 | ||
| 44007_TS_DEWT_092023.nc | 17-Jan-2026 07:41 | 1477020 | ||
| 44007_TS_DEWT_092024.nc | 17-Jan-2026 07:52 | 1477058 | ||
| 44007_TS_DEWT_092025.nc | 17-Jan-2026 08:04 | 1477097 | ||
| 44007_TS_DEWT_101999.nc | 17-Jan-2026 05:26 | 1476703 | ||
| 44007_TS_DEWT_102000.nc | 17-Jan-2026 05:30 | 1476863 | ||
| 44007_TS_DEWT_102001.nc | 17-Jan-2026 05:34 | 1476962 | ||
| 44007_TS_DEWT_102002.nc | 17-Jan-2026 05:39 | 1476073 | ||
| 44007_TS_DEWT_102003.nc | 17-Jan-2026 05:44 | 1476740 | ||
| 44007_TS_DEWT_102004.nc | 17-Jan-2026 05:48 | 1625763 | ||
| 44007_TS_DEWT_102005.nc | 17-Jan-2026 05:51 | 1626924 | ||
| 44007_TS_DEWT_102006.nc | 17-Jan-2026 05:57 | 1626948 | ||
| 44007_TS_DEWT_102007.nc | 17-Jan-2026 06:03 | 1626946 | ||
| 44007_TS_DEWT_102008.nc | 17-Jan-2026 06:11 | 1626973 | ||
| 44007_TS_DEWT_102009.nc | 17-Jan-2026 06:18 | 1626331 | ||
| 44007_TS_DEWT_102010.nc | 17-Jan-2026 06:25 | 1626950 | ||
| 44007_TS_DEWT_102014.nc | 17-Jan-2026 06:45 | 1626675 | ||
| 44007_TS_DEWT_102015.nc | 17-Jan-2026 06:50 | 1626545 | ||
| 44007_TS_DEWT_102016.nc | 17-Jan-2026 06:54 | 1626820 | ||
| 44007_TS_DEWT_102017.nc | 17-Jan-2026 06:58 | 1626726 | ||
| 44007_TS_DEWT_102018.nc | 17-Jan-2026 07:02 | 1626488 | ||
| 44007_TS_DEWT_102019.nc | 17-Jan-2026 07:06 | 1625956 | ||
| 44007_TS_DEWT_102020.nc | 17-Jan-2026 07:10 | 1626105 | ||
| 44007_TS_DEWT_102021.nc | 17-Jan-2026 07:19 | 1626491 | ||
| 44007_TS_DEWT_102022.nc | 17-Jan-2026 07:30 | 1476795 | ||
| 44007_TS_DEWT_102023.nc | 17-Jan-2026 07:42 | 1476908 | ||
| 44007_TS_DEWT_102024.nc | 17-Jan-2026 07:52 | 1476996 | ||
| 44007_TS_DEWT_102025.nc | 17-Jan-2026 08:05 | 1477101 | ||
| 44007_TS_DEWT_111999.nc | 17-Jan-2026 05:26 | 1477102 | ||
| 44007_TS_DEWT_112000.nc | 17-Jan-2026 05:30 | 1476407 | ||
| 44007_TS_DEWT_112001.nc | 17-Jan-2026 05:34 | 1476953 | ||
| 44007_TS_DEWT_112002.nc | 17-Jan-2026 05:40 | 1463099 | ||
| 44007_TS_DEWT_112003.nc | 17-Jan-2026 05:44 | 1476733 | ||
| 44007_TS_DEWT_112004.nc | 17-Jan-2026 05:48 | 1477010 | ||
| 44007_TS_DEWT_112005.nc | 17-Jan-2026 05:52 | 1476965 | ||
| 44007_TS_DEWT_112006.nc | 17-Jan-2026 05:57 | 1477037 | ||
| 44007_TS_DEWT_112007.nc | 17-Jan-2026 06:03 | 1471502 | ||
| 44007_TS_DEWT_112008.nc | 17-Jan-2026 06:12 | 1476875 | ||
| 44007_TS_DEWT_112009.nc | 17-Jan-2026 06:19 | 1476923 | ||
| 44007_TS_DEWT_112010.nc | 17-Jan-2026 06:25 | 1476708 | ||
| 44007_TS_DEWT_112013.nc | 17-Jan-2026 06:40 | 1626557 | ||
| 44007_TS_DEWT_112014.nc | 17-Jan-2026 06:46 | 1624725 | ||
| 44007_TS_DEWT_112015.nc | 17-Jan-2026 06:50 | 1626954 | ||
| 44007_TS_DEWT_112016.nc | 17-Jan-2026 06:54 | 1626979 | ||
| 44007_TS_DEWT_112017.nc | 17-Jan-2026 06:58 | 1626953 | ||
| 44007_TS_DEWT_112018.nc | 17-Jan-2026 07:02 | 1626867 | ||
| 44007_TS_DEWT_112019.nc | 17-Jan-2026 07:06 | 1626211 | ||
| 44007_TS_DEWT_112020.nc | 17-Jan-2026 07:11 | 1472620 | ||
| 44007_TS_DEWT_112021.nc | 17-Jan-2026 07:19 | 1626666 | ||
| 44007_TS_DEWT_112022.nc | 17-Jan-2026 07:32 | 1626851 | ||
| 44007_TS_DEWT_112023.nc | 17-Jan-2026 07:43 | 1624181 | ||
| 44007_TS_DEWT_112024.nc | 17-Jan-2026 07:53 | 1626500 | ||
| 44007_TS_DEWT_112025.nc | 17-Jan-2026 08:06 | 1626846 | ||
| 44007_TS_DEWT_121999.nc | 17-Jan-2026 05:27 | 1625770 | ||
| 44007_TS_DEWT_122000.nc | 17-Jan-2026 05:31 | 1474056 | ||
| 44007_TS_DEWT_122001.nc | 17-Jan-2026 05:35 | 1625608 | ||
| 44007_TS_DEWT_122002.nc | 17-Jan-2026 05:40 | 1626391 | ||
| 44007_TS_DEWT_122003.nc | 17-Jan-2026 05:44 | 1475794 | ||
| 44007_TS_DEWT_122004.nc | 17-Jan-2026 05:49 | 1470101 | ||
| 44007_TS_DEWT_122005.nc | 17-Jan-2026 05:52 | 1472046 | ||
| 44007_TS_DEWT_122006.nc | 17-Jan-2026 05:57 | 428207 | ||
| 44007_TS_DEWT_122007.nc | 17-Jan-2026 06:04 | 1473886 | ||
| 44007_TS_DEWT_122008.nc | 17-Jan-2026 06:13 | 1470094 | ||
| 44007_TS_DEWT_122010.nc | 17-Jan-2026 06:26 | 1470745 | ||
| 44007_TS_DEWT_122011.nc | 17-Jan-2026 06:31 | 1465315 | ||
| 44007_TS_DEWT_122013.nc | 17-Jan-2026 06:40 | 419177 | ||
| 44007_TS_DEWT_122014.nc | 17-Jan-2026 06:46 | 1469979 | ||
| 44007_TS_DEWT_122015.nc | 17-Jan-2026 06:50 | 1152014 | ||
| 44007_TS_DEWT_122016.nc | 17-Jan-2026 06:54 | 1472516 | ||
| 44007_TS_DEWT_122017.nc | 17-Jan-2026 06:58 | 1477904 | ||
| 44007_TS_DEWT_122018.nc | 17-Jan-2026 07:02 | 1467405 | ||
| 44007_TS_DEWT_122019.nc | 17-Jan-2026 07:07 | 1164011 | ||
| 44007_TS_DEWT_122020.nc | 17-Jan-2026 07:12 | 1470159 | ||
| 44007_TS_DEWT_122021.nc | 17-Jan-2026 07:21 | 1471715 | ||
| 44007_TS_DEWT_122022.nc | 17-Jan-2026 07:33 | 1471175 | ||
| 44007_TS_DEWT_122023.nc | 17-Jan-2026 07:44 | 1463502 | ||
| 44007_TS_DEWT_122024.nc | 17-Jan-2026 07:55 | 1466316 | ||
| 44007_TS_DEWT_122025.nc | 17-Jan-2026 08:07 | 1474958 | ||